sat.trackr.live / text

‹ back to catalog

STARLINK-31093

NORAD 58717 · 2024-002N

PAYLOAD ACTIVE UNKNOWN

§ Identity

Operator
Country
US
Launch date
2024-01-03
Launch site
AFWTR
Launch vehicle
Mass (kg)
RCS (m²)

Purposes: comms

External: N2YO · Heavens-Above · Gunter

§ Orbital elements

Epoch: 2026-05-24T23:15:51.928992Z

Period
94.11 min
Inclination
53.1604°
Eccentricity
0.0001097
Mean motion
15.30202023 rev/d
Perigee alt
474.5 km
Apogee alt
476.0 km
Semi-major
6,853.3 km
B*
-6.9169e-5
RAAN
235.6676°
Arg perigee
94.0999°
Mean anomaly
266.0127°
Rev number
13,369

§ Raw data

STARLINK-310931 58717U 24002N   26144.96935103 -.00002407  00000+0 -69169-4 0  99982 58717  53.1604 235.6676 0001097  94.0999 266.0127 15.30202023133695

JSON: /api/v1/satellites/58717 · /tle

For live sub-satellite position, see the globe view (requires WebGL).

§ Visibility from observer

Set your observer location to see the next 7 days of passes ≥ 10°. The values pass through the URL so the page stays shareable.

No JS? Fill the form by hand. The geolocation button needs JavaScript.